EW7351 Weather Reports


time (UTC)temp
C
wind
direction
speed
KPH
gust
KPH
rain 1hr
cm
rain 24hr
cm
rain mn
cm
humidity
%
barometer
mb
20260508182736 25 90 4.8 11.3 0.00 0.00 0.00 57 1010.0
20260508182233 25 124 3.2 12.9 0.00 0.00 0.00 56 1010.1
20260508181731 25 162 3.2 11.3 0.00 0.00 0.00 60 1010.1
20260508181229 25 122 4.8 9.7 0.00 0.00 0.00 60 1010.2
20260508180706 25 152 3.2 12.9 0.00 0.00 0.00 56 1010.3
20260508180137 24 90 4.8 14.5 0.00 0.00 0.00 59 1010.4
20260508175611 24 223 6.4 14.5 0.00 0.00 0.00 57 1010.5
20260508175047 24 153 6.4 17.7 0.00 0.00 0.00 59 1010.7
20260508174519 24 119 4.8 17.7 0.00 0.00 0.00 57 1010.7
20260508173951 24 257 6.4 14.5 0.00 0.00 0.00 61 1010.7
20260508173447 23 123 4.8 14.5 0.00 0.00 0.00 57 1010.8
20260508172918 23 214 3.2 14.5 0.00 0.00 0.00 60 1010.8
20260508172419 23 150 3.2 12.9 0.00 0.00 0.00 62 1010.9
20260508171919 23 159 4.8 12.9 0.00 0.00 0.00 59 1011.0
20260508171354 22 191 4.8 12.9 0.00 0.00 0.00 61 1011.2
20260508170825 22 120 4.8 11.3 0.00 0.00 0.00 62 1011.4
20260508170321 22 116 4.8 11.3 0.00 0.00 0.00 61 1011.6
20260508170019 22 124 4.8 11.3 0.00 0.00 0.00 62 1011.7
20260508165257 22 104 4.8 11.3 0.00 0.00 0.00 61 1012.0
20260508164952 22 143 4.8 12.9 0.00 0.00 0.00 62 1012.1
20260508164446 22 114 3.2 12.9 0.00 0.00 0.00 62 1012.1
20260508163657 22 113 3.2 12.9 0.00 0.00 0.00 64 1012.3
20260508163156 21 131 4.8 12.9 0.00 0.00 0.00 63 1012.4
20260508162627 21 205 4.8 12.9 0.00 0.00 0.00 62 1012.5
20260508162126 21 216 4.8 12.9 0.00 0.00 0.00 61 1012.5
20260508161558 21 121 6.4 14.5 0.00 0.00 0.00 62 1012.5
20260508161056 21 221 4.8 14.5 0.00 0.00 0.00 61 1012.6
20260508160527 21 108 4.8 14.5 0.00 0.00 0.00 62 1012.6
20260508160026 21 97 4.8 14.5 0.00 0.00 0.00 61 1012.7
20260508155521 21 229 6.4 14.5 0.00 0.00 0.00 62 1012.8
20260508155021 21 252 6.4 14.5 0.00 0.00 0.00 63 1012.8
20260508154453 21 160 4.8 12.9 0.00 0.00 0.00 62 1012.8
20260508153948 20 129 3.2 12.9 0.00 0.00 0.00 63 1013.0
20260508153447 20 150 3.2 8.0 0.00 0.00 0.00 67 1012.9
20260508152919 20 124 3.2 8.0 0.00 0.00 0.00 66 1012.9
20260508152900 20 172 3.2 8.0 0.00 0.00 0.00 65 1013.1
20260508151849 20 126 4.8 11.3 0.00 0.00 0.00 65 1013.2
20260508151613 20 210 3.2 11.3 0.00 0.00 0.00 65 1013.1
20260508151102 20 158 4.8 11.3 0.00 0.00 0.00 66 1013.1
20260508150341 20 240 4.8 11.3 0.00 0.00 0.00 64 1013.0
20260508145813 20 162 3.2 9.7 0.00 0.00 0.00 64 1013.0
20260508145312 20 154 3.2 8.0 0.00 0.00 0.00 64 1012.9
20260508144746 20 176 4.8 8.0 0.00 0.00 0.00 65 1012.9
20260508144217 19 158 4.8 12.9 0.00 0.00 0.00 66 1012.9
20260508143715 19 161 4.8 12.9 0.00 0.00 0.00 65 1013.1
20260508143148 19 176 4.8 14.5 0.00 0.00 0.00 66 1013.1
20260508142906 19 113 4.8 14.5 0.00 0.00 0.00 65 1013.1
20260508142118 19 227 6.4 12.9 0.00 0.00 0.00 66 1013.2
20260508141844 19 153 6.4 14.5 0.00 0.00 0.00 66 1013.3
20260508141049 19 177 4.8 14.5 0.00 0.00 0.00 66 1013.4
20260508140548 19 172 3.2 11.3 0.00 0.00 0.00 68 1013.3
20260508140019 19 146 4.8 11.3 0.00 0.00 0.00 70 1013.3
20260508135518 18 124 4.8 11.3 0.00 0.00 0.00 68 1013.3
20260508135208 18 176 3.2 11.3 0.00 0.00 0.00 69 1013.3
20260508134449 18 132 1.6 8.0 0.00 0.00 0.00 72 1013.3
20260508134155 18 120 1.6 8.0 0.00 0.00 0.00 72 1013.1
20260508133425 17 134 1.6 6.4 0.00 0.00 0.00 77 1013.1
20260508132924 17 157 1.6 4.8 0.00 0.00 0.00 77 1013.2
20260508132356 17 153 1.6 4.8 0.00 0.00 0.00 77 1013.4
20260508131853 17 146 1.6 6.4 0.00 0.00 0.00 78 1013.5
20260508131614 16 133 1.6 6.4 0.00 0.00 0.00 79 1013.5
20260508130826 16 126 0.0 4.8 0.00 0.00 0.00 83 1013.3
20260508130258 16 136 0.0 3.2 0.00 0.00 0.00 84 1013.4
20260508125230 16 146 0.0 0.0 0.00 0.00 0.00 86 1013.4
20260508124701 16 145 0.0 0.0 0.00 0.00 0.00 86 1013.5
20260508124201 16 146 0.0 0.0 0.00 0.00 0.00 86 1013.6
20260508123631 16 145 0.0 0.0 0.00 0.00 0.00 86 1013.7
20260508123359 15 145 0.0 0.0 0.00 0.00 0.00 86 1013.7
20260508122604 15 146 0.0 0.0 0.00 0.00 0.00 86 1013.6
20260508122100 15 146 0.0 0.0 0.00 0.00 0.00 86 1013.5
20260508121533 15 145 0.0 0.0 0.00 0.00 0.00 86 1013.5
20260508121028 15 145 0.0 0.0 0.00 0.00 0.00 86 1013.5
20260508120526 15 145 0.0 0.0 0.00 0.00 0.00 86 1013.5
20260508115957 15 145 0.0 0.0 0.00 0.00 0.00 86 1013.6
20260508115456 15 146 0.0 0.0 0.00 0.00 0.00 86 1013.4
20260508115148 15 146 0.0 0.0 0.00 0.00 0.00 86 1013.6
20260508114423 15 146 0.0 3.2 0.00 0.00 0.00 86 1013.6
20260508113902 15 146 0.0 4.8 0.00 0.00 0.00 86 1013.4
20260508113333 15 117 0.0 4.8 0.00 0.00 0.00 86 1013.5
20260508112831 15 129 1.6 4.8 0.00 0.00 0.00 86 1013.6
20260508112527 15 120 1.6 4.8 0.00 0.00 0.00 86 1013.6
20260508111804 15 133 0.0 1.6 0.00 0.00 0.00 86 1013.8
20260508111307 15 339 0.0 0.0 0.00 0.00 0.00 85 1013.9
20260508110746 15 339 0.0 3.2 0.00 0.00 0.00 85 1014.1
20260508110726 15 339 1.6 6.4 0.00 0.00 0.00 85 1014.3
20260508105739 15 334 1.6 6.4 0.00 0.00 0.00 84 1014.2
20260508105219 15 319 0.0 0.0 0.00 0.00 0.00 84 1013.9
20260508104659 15 262 0.0 1.6 0.00 0.00 0.00 84 1013.5
20260508104159 15 262 0.0 3.2 0.00 0.00 0.00 83 1013.1
20260508103654 15 153 0.0 3.2 0.00 0.00 0.00 83 1012.9
20260508103129 15 259 0.0 1.6 0.00 0.00 0.00 83 1012.7
20260508102631 15 259 0.0 1.6 0.00 0.00 0.00 84 1012.6
20260508102128 15 259 0.0 3.2 0.00 0.00 0.00 84 1012.6
20260508101629 15 259 0.0 3.2 0.00 0.00 0.00 85 1012.5
20260508101333 15 237 0.0 3.2 0.00 0.00 0.00 86 1012.5
20260508100605 15 231 0.0 0.0 0.00 0.00 0.00 86 1012.5
20260508100049 15 231 0.0 0.0 0.00 0.00 0.00 85 1012.6
20260508095541 15 231 0.0 0.0 0.00 0.00 0.00 85 1012.5
20260508095306 15 231 0.0 0.0 0.00 0.00 0.00 85 1012.6
20260508094549 15 231 0.0 0.0 0.00 0.00 0.00 85 1012.7
20260508094538 15 231 0.0 0.0 0.00 0.00 0.00 85 1012.7
20260508094226 15 231 0.0 0.0 0.00 0.00 0.00 85 1012.8
20260508092948 15 231 0.0 0.0 0.00 0.00 0.00 85 1012.8
20260508092449 15 231 0.0 0.0 0.00 0.00 0.00 85 1012.8
20260508091933 15 231 0.0 0.0 0.00 0.00 0.00 85 1012.7
20260508091435 16 231 0.0 0.0 0.00 0.00 0.00 85 1012.8
20260508090907 15 231 0.0 3.2 0.00 0.00 0.00 85 1012.8
20260508090350 15 231 0.0 1.6 0.00 0.00 0.00 85 1012.9
20260508090330 15 121 1.6 8.0 0.00 0.00 0.00 85 1012.7
20260508085321 15 165 3.2 8.0 0.00 0.00 0.00 86 1012.7
20260508084821 15 131 3.2 8.0 0.00 0.00 0.00 86 1012.7
20260508084322 15 147 3.2 8.0 0.00 0.00 0.00 86 1012.7
20260508083801 15 141 1.6 6.4 0.00 0.00 0.00 86 1013.2
20260508083300 15 278 0.0 0.0 0.00 0.00 0.00 86 1013.7
20260508083025 15 278 0.0 0.0 0.00 0.00 0.00 84 1013.7
20260508082306 15 278 0.0 0.0 0.00 0.00 0.00 84 1013.8
20260508081737 15 278 0.0 0.0 0.00 0.00 0.00 84 1013.7
20260508081209 16 278 0.0 0.0 0.00 0.00 0.00 84 1014.1
20260508080639 16 278 0.0 0.0 0.00 0.00 0.00 83 1014.2
20260508080116 16 274 0.0 0.0 0.00 0.00 0.00 84 1014.2
20260508075612 15 274 0.0 1.6 0.00 0.00 0.00 83 1014.3
20260508075111 15 274 0.0 1.6 0.00 0.00 0.00 84 1014.4
20260508074550 15 150 0.0 0.0 0.00 0.00 0.00 84 1013.9
20260508074253 15 150 0.0 0.0 0.00 0.00 0.00 84 1013.6
20260508073524 15 150 0.0 0.0 0.00 0.00 0.00 84 1013.6
20260508073020 15 150 0.0 0.0 0.00 0.00 0.00 84 1013.7
20260508072514 15 150 0.0 0.0 0.00 0.00 0.00 85 1013.7
20260508071947 15 150 0.0 0.0 0.00 0.00 0.00 85 1013.7
20260508071422 15 150 0.0 0.0 0.00 0.00 0.00 85 1013.7
20260508070852 15 150 0.0 0.0 0.00 0.00 0.00 84 1013.8
20260508070351 15 150 0.0 0.0 0.00 0.00 0.00 84 1013.8
20260508065846 15 150 0.0 0.0 0.00 0.00 0.00 84 1013.8
20260508065339 15 150 0.0 0.0 0.00 0.00 0.00 84 1014.0
20260508065106 15 150 0.0 0.0 0.00 0.00 0.00 84 1014.2
20260508064313 15 150 0.0 0.0 0.00 0.00 0.00 84 1014.2
20260508064010 15 150 0.0 0.0 0.00 0.00 0.00 84 1014.2
20260508063238 15 150 0.0 0.0 0.00 0.00 0.00 84 1014.4
20260508062959 15 150 0.0 0.0 0.00 0.00 0.00 84 1014.4
20260508062236 15 150 0.0 0.0 0.00 0.00 0.00 84 1014.4
20260508061706 15 150 0.0 0.0 0.00 0.00 0.00 84 1014.4
20260508061205 15 150 0.0 0.0 0.00 0.00 0.00 84 1014.4
20260508060652 15 150 0.0 0.0 0.00 0.00 0.00 83 1014.4
20260508060409 15 150 0.0 0.0 0.00 0.00 0.00 83 1014.4
20260508055818 15 150 0.0 0.0 0.00 0.00 0.00 82 1014.6
20260508055658 15 150 0.0 0.0 0.00 0.00 0.00 83 1014.4
20260508054536 15 150 0.0 0.0 0.00 0.00 0.00 82 1014.5
20260508054008 15 150 0.0 0.0 0.00 0.00 0.00 82 1014.4
20260508053505 15 150 0.0 0.0 0.00 0.00 0.00 81 1014.5
20260508053001 15 150 0.0 0.0 0.00 0.00 0.00 82 1014.5
20260508052440 15 150 0.0 0.0 0.00 0.00 0.00 82 1014.5
20260508051902 15 150 0.0 0.0 0.00 0.00 0.00 81 1014.5
20260508051401 15 150 0.0 0.0 0.00 0.00 0.00 80 1014.4
20260508050835 15 150 0.0 0.0 0.00 0.00 0.00 81 1014.4
20260508050548 15 150 0.0 0.0 0.00 0.00 0.00 81 1014.4
20260508050051 15 150 0.0 0.0 0.00 0.00 0.00 81 1014.5
20260508045306 15 150 0.0 0.0 0.00 0.00 0.00 81 1014.5
20260508044736 15 150 0.0 0.0 0.00 0.00 0.00 82 1014.7
20260508044232 15 150 0.0 0.0 0.00 0.00 0.00 81 1014.4
20260508043731 15 150 0.0 0.0 0.00 0.00 0.00 80 1014.3
20260508043203 15 150 0.0 0.0 0.00 0.00 0.00 79 1014.3
20260508042658 15 150 0.0 0.0 0.00 0.00 0.00 79 1014.3
20260508042133 15 150 0.0 0.0 0.00 0.00 0.00 79 1014.4
20260508041630 15 150 0.0 0.0 0.00 0.00 0.00 79 1014.4
20260508041128 15 150 0.0 0.0 0.00 0.00 0.00 79 1014.4
20260508040616 15 150 0.0 0.0 0.00 0.00 0.00 79 1014.2
20260508040113 15 150 0.0 0.0 0.00 0.00 0.00 77 1014.2
20260508035549 16 150 0.0 0.0 0.00 0.00 0.00 77 1014.2
20260508035036 16 150 0.0 0.0 0.00 0.00 0.00 77 1014.1
20260508034806 16 150 0.0 0.0 0.00 0.00 0.00 77 1014.2
20260508034010 16 150 0.0 0.0 0.00 0.00 0.00 76 1014.2
20260508033510 16 150 0.0 0.0 0.00 0.00 0.00 76 1014.1
20260508033205 16 150 0.0 0.0 0.00 0.00 0.00 76 1014.1
20260508032441 16 150 0.0 0.0 0.00 0.00 0.00 75 1014.1
20260508032156 16 150 0.0 0.0 0.00 0.00 0.00 75 1014.3
20260508031917 16 150 0.0 0.0 0.00 0.00 0.00 76 1014.2
20260508030909 16 150 0.0 0.0 0.00 0.00 0.00 76 1014.2
20260508030400 16 150 0.0 0.0 0.00 0.00 0.00 75 1014.1
20260508025858 16 150 0.0 0.0 0.00 0.00 0.00 74 1014.1
20260508025346 16 150 0.0 0.0 0.00 0.00 0.00 75 1014.0
20260508024846 16 150 0.0 0.0 0.00 0.00 0.00 74 1014.0
20260508024323 16 150 0.0 0.0 0.00 0.00 0.00 73 1014.1
20260508023755 16 150 0.0 0.0 0.00 0.00 0.00 72 1014.1
20260508023255 16 150 0.0 0.0 0.00 0.00 0.00 72 1014.1
20260508022729 16 150 0.0 0.0 0.00 0.00 0.00 71 1013.9
20260508022200 16 150 0.0 0.0 0.00 0.00 0.00 71 1013.8
20260508021700 17 150 0.0 0.0 0.00 0.00 0.00 70 1013.8
20260508021356 17 150 0.0 0.0 0.00 0.00 0.00 70 1013.7
20260508020615 17 150 0.0 0.0 0.00 0.00 0.00 68 1013.6
20260508020110 17 150 0.0 0.0 0.00 0.00 0.00 67 1013.6
20260508015550 17 150 0.0 0.0 0.00 0.00 0.00 67 1013.6
20260508015030 17 150 0.0 0.0 0.00 0.00 0.00 67 1013.6
20260508014526 17 150 0.0 0.0 0.00 0.00 0.00 67 1013.7
20260508014023 17 150 0.0 0.0 0.00 0.00 0.00 65 1013.7
20260508013501 18 150 0.0 0.0 0.00 0.00 0.00 65 1013.7
20260508013005 18 150 0.0 0.0 0.00 0.00 0.00 64 1013.7
20260508012500 18 150 0.0 0.0 0.00 0.00 0.00 63 1013.6
20260508012002 18 150 0.0 0.0 0.00 0.00 0.00 62 1013.6
20260508011442 18 150 0.0 0.0 0.00 0.00 0.00 62 1013.6
20260508011139 18 150 0.0 3.2 0.00 0.00 0.00 61 1013.6
20260508010619 18 150 0.0 3.2 0.00 0.00 0.00 61 1013.6
20260508010117 18 224 0.0 4.8 0.00 0.00 0.00 61 1013.6
20260508005615 19 245 1.6 6.4 0.00 0.00 0.00 61 1013.6
20260508004836 19 234 1.6 6.4 0.00 0.00 0.00 61 1013.6
20260508004333 19 272 1.6 8.0 0.00 0.00 0.00 61 1013.7
20260508003833 19 235 1.6 8.0 0.00 0.00 0.00 60 1013.7
20260508003330 19 121 1.6 6.4 0.00 0.00 0.00 60 1013.6
20260508002813 19 195 1.6 9.7 0.00 0.00 0.00 60 1013.6
20260508002255 19 174 3.2 9.7 0.00 0.00 0.00 59 1013.7
20260508001736 19 236 3.2 9.7 0.00 0.00 0.00 58 1013.7
20260508001214 20 197 3.2 9.7 0.00 0.00 0.00 58 1013.7
20260508000649 20 110 3.2 9.7 0.00 0.00 0.00 58 1013.8
20260508000132 20 123 3.2 11.3 0.00 0.00 0.00 58 1013.8
20260507235631 20 167 3.2 11.3 0.00 0.00 0.00 58 1013.6
20260507235130 20 156 4.8 9.7 0.00 0.00 0.00 57 1013.7
20260507234607 20 117 4.8 11.3 0.00 0.00 0.00 57 1013.7
20260507234045 20 193 3.2 11.3 0.00 0.00 0.00 58 1013.7
20260507233540 20 250 3.2 9.7 0.00 0.00 0.00 58 1013.7
20260507233037 20 217 4.8 11.3 0.00 0.00 0.00 58 1013.5
20260507232537 20 188 4.8 11.3 0.00 0.00 0.00 57 1013.6
20260507232029 20 192 3.2 11.3 0.00 0.00 0.00 58 1013.7
20260507231532 20 122 3.2 11.3 0.00 0.00 0.00 58 1013.8
20260507231026 20 155 4.8 12.9 0.00 0.00 0.00 57 1013.8
20260507230525 20 178 4.8 12.9 0.00 0.00 0.00 57 1013.8
20260507230024 20 206 4.8 14.5 0.00 0.00 0.00 56 1013.9
20260507225526 21 122 4.8 14.5 0.00 0.00 0.00 55 1013.7
20260507225011 21 100 4.8 11.3 0.00 0.00 0.00 56 1013.8
20260507224511 21 146 4.8 11.3 0.00 0.00 0.00 54 1013.7
20260507223945 21 210 4.8 11.3 0.00 0.00 0.00 54 1013.8
20260507223440 21 129 4.8 11.3 0.00 0.00 0.00 54 1013.8
20260507222914 22 144 3.2 11.3 0.00 0.00 0.00 51 1013.8
20260507222350 22 283 1.6 6.4 0.00 0.00 0.00 52 1013.9
20260507221825 22 129 0.0 4.8 0.00 0.00 0.00 49 1013.7
20260507221300 22 120 0.0 3.2 0.00 0.00 0.00 48 1013.9
20260507220753 22 121 1.6 6.4 0.00 0.00 0.00 49 1014.1
20260507220250 23 122 0.0 6.4 0.00 0.00 0.00 48 1014.0
20260507215746 22 121 0.0 3.2 0.00 0.00 0.00 50 1013.9
20260507215243 22 323 0.0 4.8 0.00 0.00 0.00 47 1013.9
20260507214715 22 15 0.0 4.8 0.00 0.00 0.00 45 1014.1
20260507214211 22 123 0.0 4.8 0.00 0.00 0.00 48 1014.2
20260507213712 23 26 0.0 4.8 0.00 0.00 0.00 46 1014.2
20260507213156 23 144 0.0 4.8 0.00 0.00 0.00 47 1014.3
20260507212656 23 72 1.6 4.8 0.00 0.00 0.00 50 1014.4
20260507212154 23 114 0.0 4.8 0.00 0.00 0.00 48 1014.3
20260507211655 23 71 0.0 3.2 0.00 0.00 0.00 46 1014.4
20260507211127 23 116 0.0 3.2 0.00 0.00 0.00 45 1014.4
20260507210626 23 122 0.0 6.4 0.00 0.00 0.00 46 1014.4
20260507210121 23 73 0.0 6.4 0.00 0.00 0.00 45 1014.4
20260507205619 23 314 1.6 4.8 0.00 0.00 0.00 46 1014.4
20260507205051 23 161 1.6 4.8 0.00 0.00 0.00 45 1014.4
20260507204551 23 115 0.0 4.8 0.00 0.00 0.00 45 1014.3
20260507204249 23 338 1.6 8.0 0.00 0.00 0.00 47 1014.4
20260507203523 23 68 1.6 8.0 0.00 0.00 0.00 47 1014.5
20260507203023 23 133 1.6 4.8 0.00 0.00 0.00 47 1014.6
20260507202523 23 120 1.6 8.0 0.00 0.00 0.00 47 1014.7
20260507202019 23 137 1.6 8.0 0.00 0.00 0.00 48 1014.8
20260507201516 23 117 1.6 6.4 0.00 0.00 0.00 46 1014.8
20260507201013 23 143 1.6 8.0 0.00 0.00 0.00 49 1015.0
20260507200732 23 115 1.6 6.4 0.00 0.00 0.00 48 1014.9
20260507200212 23 129 0.0 6.4 0.00 0.00 0.00 49 1015.1
20260507195428 23 14 0.0 3.2 0.00 0.00 0.00 45 1015.0
20260507194927 23 134 1.6 4.8 0.00 0.00 0.00 48 1015.2
20260507194427 23 69 1.6 4.8 0.00 0.00 0.00 46 1015.3
20260507193925 23 185 1.6 6.4 0.00 0.00 0.00 48 1015.4
20260507193427 23 162 1.6 8.0 0.00 0.00 0.00 50 1015.4
20260507192902 23 160 1.6 8.0 0.00 0.00 0.00 50 1015.5
20260507192334 22 350 1.6 8.0 0.00 0.00 0.00 48 1015.5
20260507191811 22 25 1.6 8.0 0.00 0.00 0.00 49 1015.7
20260507191243 23 131 1.6 4.8 0.00 0.00 0.00 49 1015.6
20260507190739 22 93 3.2 11.3 0.00 0.00 0.00 49 1015.6
20260507190239 22 112 3.2 14.5 0.00 0.00 0.00 51 1015.7
20260507185734 21 27 3.2 14.5 0.00 0.00 0.00 51 1015.7
20260507185232 21 323 3.2 14.5 0.00 0.00 0.00 46 1015.7
20260507184703 21 358 1.6 11.3 0.00 0.00 0.00 52 1015.7
20260507184201 21 11 3.2 12.9 0.00 0.00 0.00 51 1015.8
20260507183635 21 128 3.2 16.1 0.00 0.00 0.00 51 1015.9
20260507183338 21 330 4.8 16.1 0.00 0.00 0.00 49 1016.0